CW9849 Weather Reports


Display with metric or nautical units.
time (UTC)temp
F
wind
direction
speed
MPH
gust
MPH
rain 1hr
in
rain 24hr
in
rain mn
in
humidity
%
barometer
mb
20260904173006 63 277 13.0 18.0 0.00 0.02 0.02 73 1022.5
20260904171503 63 274 11.0 19.0 0.00 0.02 0.02 72 1022.2
20260904170002 63 297 13.0 20.0 0.00 0.02 0.02 77 1022.1
20260904164501 63 295 12.0 17.0 0.00 0.02 0.02 79 1021.8
20260904163100 63 257 8.0 16.0 0.00 0.02 0.02 78 1021.8
20260904161603 63 291 10.0 15.0 0.00 0.02 0.02 77 1021.7
20260904160100 63 295 10.0 15.0 0.00 0.02 0.02 78 1021.6
20260904154600 63 277 10.0 15.0 0.00 0.02 0.02 77 1021.6
20260904153111 63 281 9.0 15.0 0.00 0.02 0.02 77 1021.4
20260904151555 63 286 12.0 19.0 0.00 0.02 0.02 72 1021.7
20260904150054 64 277 9.0 17.0 0.00 0.02 0.02 76 1021.7
20260904144602 64 296 12.0 19.0 0.00 0.02 0.02 76 1021.6
20260904143114 64 296 12.0 18.0 0.00 0.02 0.02 77 1021.5
20260904141552 65 278 11.0 18.0 0.00 0.02 0.02 77 1021.4
20260904140053 64 281 12.0 20.0 0.00 0.02 0.02 74 1021.5
20260904134552 64 279 12.0 17.0 0.00 0.02 0.02 77 1021.4
20260904133100 65 276 11.0 17.0 0.00 0.02 0.02 76 1021.3
20260904131548 65 283 11.0 16.0 0.00 0.02 0.02 77 1021.2
20260904130049 64 291 9.0 15.0 0.00 0.02 0.02 75 1021.0
20260904124544 64 311 9.0 15.0 0.00 0.02 0.02 77 1020.8
20260904123044 64 324 10.0 16.0 0.00 0.02 0.02 74 1020.8
20260904121541 65 288 11.0 17.0 0.00 0.02 0.02 74 1020.7
20260904120046 65 309 9.0 18.0 0.00 0.02 0.02 75 1020.6
20260904114541 65 278 14.0 18.0 0.00 0.02 0.02 74 1020.3
20260904113039 65 288 12.0 18.0 0.00 0.02 0.02 73 1020.3
20260904111536 65 276 9.0 17.0 0.00 0.02 0.02 74 1020.3
20260904110036 65 295 12.0 19.0 0.00 0.02 0.02 75 1020.1
20260904104532 65 288 12.0 19.0 0.00 0.02 0.02 77 1019.9
20260904103030 65 290 9.0 17.0 0.00 0.02 0.02 78 1019.8
20260904101532 65 257 10.0 19.0 0.00 0.02 0.02 80 1019.7
20260904100026 66 285 8.0 15.0 0.00 0.02 0.02 81 1019.6
20260904094524 65 297 10.0 18.0 0.00 0.02 0.02 81 1019.4
20260904093022 64 293 9.0 16.0 0.00 0.02 0.02 85 1019.2
20260904091520 64 302 9.0 19.0 0.00 0.02 0.02 85 1018.9
20260904090023 65 283 11.0 20.0 0.00 0.02 0.02 85 1018.6
20260904084521 65 281 14.0 21.0 0.00 0.02 0.02 85 1018.7
20260904083014 64 271 14.0 18.0 0.00 0.02 0.02 89 1018.5
20260904081510 63 303 12.0 16.0 0.00 0.02 0.02 92 1018.4
20260904080007 62 288 11.0 21.0 0.00 0.02 0.02 91 1018.1
20260904074505 63 257 9.0 14.0 0.00 0.02 0.02 92 1017.9
20260904073113 63 284 11.0 14.0 0.00 0.02 0.02 92 1017.6
20260904071501 62 259 7.0 11.0 0.00 0.02 0.02 94 1017.3
20260904064558 62 288 8.0 13.0 0.00 0.02 0.02 94 1017.1
20260904063113 62 276 10.0 17.0 0.01 0.02 0.02 94 1017.0
20260904061553 62 284 11.0 17.0 0.01 0.02 0.02 94 1016.9
20260904060053 62 319 7.0 15.0 0.02 0.02 0.02 94 1016.8
20260904054553 62 316 9.0 14.0 0.02 0.03 0.02 95 1016.6
20260904053059 63 303 8.0 14.0 0.01 0.02 0.02 94 1016.5
20260904051547 63 328 9.0 16.0 0.02 0.02 0.02 94 1016.2
20260904050043 64 281 14.0 23.0 0.01 0.02 0.01 93 1016.1
20260904044543 65 231 19.0 31.0 0.01 0.02 0.01 95 1015.6
20260904043052 65 233 20.0 28.0 0.01 0.02 0.01 94 1015.6
20260904041540 65 233 20.0 29.0 0.00 0.01 0.00 94 1015.7
20260904040039 65 231 21.0 28.0 0.00 0.01 0.00 94 1015.7
20260904034538 65 231 20.0 26.0 0.00 0.02 0.00 93 1015.7
20260904033035 66 224 20.0 27.0 0.00 0.02 0.00 92 1015.6
20260904031530 66 233 21.0 28.0 0.00 0.02 0.00 92 1015.6
20260904030035 66 231 20.0 29.0 0.00 0.02 0.00 92 1015.6
20260904024523 66 233 21.0 29.0 0.00 0.02 0.00 93 1015.8
20260904023017 65 203 18.0 26.0 0.00 0.02 0.00 93 1016.0
20260904021515 65 233 20.0 26.0 0.00 0.02 0.00 93 1016.1
20260904020011 65 227 16.0 26.0 0.00 0.02 0.00 93 1016.3
20260904014512 65 233 20.0 29.0 0.00 0.02 0.00 93 1016.4
20260904013003 65 226 19.0 28.0 0.00 0.02 0.00 93 1016.7
20260904011502 65 238 18.0 27.0 0.00 0.02 0.00 94 1016.8
20260904010006 65 229 18.0 25.0 0.00 0.02 0.00 93 1016.8
20260904004600 65 239 18.0 29.0 0.00 0.02 0.00 94 1016.7
20260904003059 65 214 19.0 29.0 0.00 0.02 0.00 94 1016.8
20260904001557 65 214 21.0 29.0 0.00 0.02 0.00 94 1016.9
20260904000056 65 222 17.0 25.0 0.00 0.02 0.00 94 1016.9
20260903234554 65 220 18.0 25.0 0.00 0.02 0.00 94 1017.0
20260903233054 65 233 19.0 30.0 0.00 0.02 0.00 94 1017.1
20260903231552 65 227 19.0 29.0 0.00 0.02 0.00 94 1017.2
20260903230051 65 198 18.0 26.0 0.00 0.02 0.00 94 1017.3
20260903224547 65 219 19.0 26.0 0.00 0.02 0.02 94 1017.3
20260903223046 65 217 19.0 26.0 0.00 0.02 0.02 94 1017.5
20260903221544 65 212 18.0 27.0 0.00 0.02 0.02 94 1017.6
20260903220045 65 224 20.0 25.0 0.00 0.02 0.02 94 1018.0
20260903214538 65 215 17.0 25.0 0.00 0.02 0.02 94 1018.1
20260903213037 65 210 18.0 25.0 0.00 0.02 0.02 94 1018.2
20260903211544 65 217 17.0 24.0 0.00 0.02 0.02 94 1018.2
20260903210040 65 210 17.0 24.0 0.00 0.02 0.02 94 1018.2
20260903204531 65 215 16.0 25.0 0.00 0.02 0.02 94 1018.3
20260903203128 65 224 17.0 24.0 0.00 0.02 0.02 94 1018.5
20260903201527 65 217 16.0 22.0 0.00 0.02 0.02 94 1018.7
20260903200026 65 224 17.0 25.0 0.00 0.02 0.02 94 1018.7
20260903194533 65 210 16.0 23.0 0.00 0.02 0.02 94 1018.8
20260903193025 65 222 15.0 23.0 0.00 0.02 0.02 94 1018.8
20260903191530 64 217 16.0 22.0 0.00 0.02 0.02 94 1018.7
20260903190021 65 221 14.0 22.0 0.00 0.02 0.02 93 1018.8
20260903184520 65 220 16.0 28.0 0.00 0.02 0.02 94 1018.9
20260903183018 65 231 15.0 21.0 0.00 0.02 0.02 93 1019.1
20260903181515 65 227 15.0 24.0 0.00 0.02 0.02 93 1019.2
20260903180021 65 229 17.0 21.0 0.00 0.02 0.02 93 1019.4
20260903174519 65 219 14.0 22.0 0.00 0.02 0.02 93 1019.6